Year,Month,Day,Hour,Minute,Value (Times are PST for temperature in C)
2020,01,16,00,00,6.00
2020,01,16,00,01,6.00
2020,01,16,00,02,5.90
2020,01,16,00,03,5.90
2020,01,16,00,04,5.90
2020,01,16,00,05,5.90
2020,01,16,00,06,5.90
2020,01,16,00,07,5.90
2020,01,16,00,08,6.00
2020,01,16,00,09,6.00
2020,01,16,00,10,5.90
2020,01,16,00,11,5.90
2020,01,16,00,12,5.80
2020,01,16,00,13,5.80
2020,01,16,00,14,5.80
2020,01,16,00,15,5.80
2020,01,16,00,16,5.80
2020,01,16,00,17,5.80
2020,01,16,00,18,5.80
2020,01,16,00,19,5.80
2020,01,16,00,20,5.80
2020,01,16,00,21,5.80
2020,01,16,00,22,5.70
2020,01,16,00,23,5.70
2020,01,16,00,24,5.70
2020,01,16,00,25,5.70
2020,01,16,00,26,5.70
2020,01,16,00,27,5.70
2020,01,16,00,28,5.70
2020,01,16,00,29,5.70
2020,01,16,00,30,5.70
2020,01,16,00,31,5.70
2020,01,16,00,32,5.80
2020,01,16,00,33,5.80
2020,01,16,00,34,5.80
2020,01,16,00,35,5.80
2020,01,16,00,36,5.70
2020,01,16,00,37,5.70
2020,01,16,00,38,5.70
2020,01,16,00,39,5.70
2020,01,16,00,40,5.70
2020,01,16,00,41,5.70
2020,01,16,00,42,5.70
2020,01,16,00,43,5.70
2020,01,16,00,44,5.70
2020,01,16,00,45,5.70
2020,01,16,00,46,5.80
2020,01,16,00,47,5.80
2020,01,16,00,48,5.80
2020,01,16,00,49,5.80
2020,01,16,00,50,5.80
2020,01,16,00,51,5.80
2020,01,16,00,52,5.80
2020,01,16,00,53,5.80
2020,01,16,00,54,5.80
2020,01,16,00,55,5.80
2020,01,16,00,56,5.80
2020,01,16,00,57,5.80
2020,01,16,00,58,5.80
2020,01,16,00,59,5.80
2020,01,16,01,00,5.80
2020,01,16,01,01,5.80
2020,01,16,01,02,5.80
2020,01,16,01,03,5.80
2020,01,16,01,04,5.80
2020,01,16,01,05,5.80
2020,01,16,01,06,5.80
2020,01,16,01,07,5.80
2020,01,16,01,08,5.80
2020,01,16,01,09,5.80
2020,01,16,01,10,5.80
2020,01,16,01,11,5.80
2020,01,16,01,12,5.80
2020,01,16,01,13,5.70
2020,01,16,01,14,5.70
2020,01,16,01,15,5.70
2020,01,16,01,16,5.70
2020,01,16,01,17,5.70
2020,01,16,01,18,5.70
2020,01,16,01,19,5.70
2020,01,16,01,20,5.70
2020,01,16,01,21,5.60
2020,01,16,01,22,5.60
2020,01,16,01,23,5.60
2020,01,16,01,24,5.60
2020,01,16,01,25,5.60
2020,01,16,01,26,5.60
2020,01,16,01,27,5.60
2020,01,16,01,28,5.60
2020,01,16,01,29,5.50
2020,01,16,01,30,5.60
2020,01,16,01,31,5.50
2020,01,16,01,32,5.50
2020,01,16,01,33,5.50
2020,01,16,01,34,5.50
2020,01,16,01,35,5.50
2020,01,16,01,36,5.50
2020,01,16,01,37,5.40
2020,01,16,01,38,5.40
2020,01,16,01,39,5.40
2020,01,16,01,40,5.40
2020,01,16,01,41,5.40
2020,01,16,01,42,5.40
2020,01,16,01,43,5.40
2020,01,16,01,44,5.40
2020,01,16,01,45,5.40
2020,01,16,01,46,5.40
2020,01,16,01,47,5.40
2020,01,16,01,48,5.40
2020,01,16,01,49,5.40
2020,01,16,01,50,5.40
2020,01,16,01,51,5.40
2020,01,16,01,52,5.40
2020,01,16,01,53,5.40
2020,01,16,01,54,5.50
2020,01,16,01,55,5.50
2020,01,16,01,56,5.50
2020,01,16,01,57,5.50
2020,01,16,01,58,5.50
2020,01,16,01,59,5.50
2020,01,16,02,00,5.50
2020,01,16,02,01,5.50
2020,01,16,02,02,5.50
2020,01,16,02,03,5.50
2020,01,16,02,04,5.50
2020,01,16,02,05,5.40
2020,01,16,02,06,5.40
2020,01,16,02,07,5.40
2020,01,16,02,08,5.40
2020,01,16,02,09,5.40
2020,01,16,02,10,5.30
2020,01,16,02,11,5.30
2020,01,16,02,12,5.30
2020,01,16,02,13,5.30
2020,01,16,02,14,5.30
2020,01,16,02,15,5.30
2020,01,16,02,16,5.30
2020,01,16,02,17,5.30
2020,01,16,02,18,5.30
2020,01,16,02,19,5.20
2020,01,16,02,20,5.20
2020,01,16,02,21,5.20
2020,01,16,02,22,5.20
2020,01,16,02,23,5.20
2020,01,16,02,24,5.20
2020,01,16,02,25,5.20
2020,01,16,02,26,5.20
2020,01,16,02,27,5.20
2020,01,16,02,28,5.20
2020,01,16,02,29,5.20
2020,01,16,02,30,5.20
2020,01,16,02,31,5.30
2020,01,16,02,32,5.30
2020,01,16,02,33,5.30
2020,01,16,02,34,5.20
2020,01,16,02,35,5.20
2020,01,16,02,36,5.20
2020,01,16,02,37,5.20
2020,01,16,02,38,5.20
2020,01,16,02,39,5.20
2020,01,16,02,40,5.20
2020,01,16,02,41,5.10
2020,01,16,02,42,5.10
2020,01,16,02,43,5.10
2020,01,16,02,44,5.10
2020,01,16,02,45,5.10
2020,01,16,02,46,5.10
2020,01,16,02,47,5.10
2020,01,16,02,48,5.10
2020,01,16,02,49,5.10
2020,01,16,02,50,5.10
2020,01,16,02,51,5.10
2020,01,16,02,52,5.10
2020,01,16,02,53,5.00
2020,01,16,02,54,5.00
2020,01,16,02,55,5.00
2020,01,16,02,56,5.00
2020,01,16,02,57,5.00
2020,01,16,02,58,4.90
2020,01,16,02,59,4.90
2020,01,16,03,00,4.80
2020,01,16,03,01,4.80
2020,01,16,03,02,4.80
2020,01,16,03,03,4.80
2020,01,16,03,04,4.80
2020,01,16,03,05,4.80
2020,01,16,03,06,4.70
2020,01,16,03,07,4.70
2020,01,16,03,08,4.70
2020,01,16,03,09,4.70
2020,01,16,03,10,4.70
2020,01,16,03,11,4.70
2020,01,16,03,12,4.60
2020,01,16,03,13,4.60
2020,01,16,03,14,4.60
2020,01,16,03,15,4.50
2020,01,16,03,16,4.40
2020,01,16,03,17,4.40
2020,01,16,03,18,4.30
2020,01,16,03,19,4.30
2020,01,16,03,20,4.20
2020,01,16,03,21,4.20
2020,01,16,03,22,4.10
2020,01,16,03,23,4.00
2020,01,16,03,24,3.90
2020,01,16,03,25,3.90
2020,01,16,03,26,3.80
2020,01,16,03,27,3.80
2020,01,16,03,28,3.80
2020,01,16,03,29,3.70
2020,01,16,03,30,3.70
2020,01,16,03,31,3.60
2020,01,16,03,32,3.60
2020,01,16,03,33,3.60
2020,01,16,03,34,3.70
2020,01,16,03,35,3.70
2020,01,16,03,36,3.70
2020,01,16,03,37,3.70
2020,01,16,03,38,3.70
2020,01,16,03,39,3.70
2020,01,16,03,40,3.60
2020,01,16,03,41,3.50
2020,01,16,03,42,3.40
2020,01,16,03,43,3.40
2020,01,16,03,44,3.30
2020,01,16,03,45,3.30
2020,01,16,03,46,3.20
2020,01,16,03,47,3.20
2020,01,16,03,48,3.30
2020,01,16,03,49,3.30
2020,01,16,03,50,3.20
2020,01,16,03,51,3.20
2020,01,16,03,52,3.10
2020,01,16,03,53,3.00
2020,01,16,03,54,3.00
2020,01,16,03,55,2.90
2020,01,16,03,56,2.80
2020,01,16,03,57,2.80
2020,01,16,03,58,2.70
2020,01,16,03,59,2.70
2020,01,16,04,00,2.70
2020,01,16,04,01,2.60
2020,01,16,04,02,2.50
2020,01,16,04,03,2.50
2020,01,16,04,04,2.40
2020,01,16,04,05,2.40
2020,01,16,04,06,2.30
2020,01,16,04,07,2.30
2020,01,16,04,08,2.30
2020,01,16,04,09,2.30
2020,01,16,04,10,2.30
2020,01,16,04,11,2.40
2020,01,16,04,12,2.40
2020,01,16,04,13,2.30
2020,01,16,04,14,2.30
2020,01,16,04,15,2.30
2020,01,16,04,16,2.30
2020,01,16,04,17,2.20
2020,01,16,04,18,2.20
2020,01,16,04,19,2.20
2020,01,16,04,20,2.20
2020,01,16,04,21,2.10
2020,01,16,04,22,2.10
2020,01,16,04,23,2.10
2020,01,16,04,24,2.00
2020,01,16,04,25,2.00
2020,01,16,04,26,2.00
2020,01,16,04,27,1.90
2020,01,16,04,28,1.90
2020,01,16,04,29,1.90
2020,01,16,04,30,1.90
2020,01,16,04,31,1.90
2020,01,16,04,32,1.90
2020,01,16,04,33,1.90
2020,01,16,04,34,1.90
2020,01,16,04,35,1.90
2020,01,16,04,36,1.80
2020,01,16,04,37,1.80
2020,01,16,04,38,1.80
2020,01,16,04,39,1.80
2020,01,16,04,40,1.80
2020,01,16,04,41,1.70
2020,01,16,04,42,1.70
2020,01,16,04,43,1.70
2020,01,16,04,44,1.70
2020,01,16,04,45,1.60
2020,01,16,04,46,1.60
2020,01,16,04,47,1.60
2020,01,16,04,48,1.60
2020,01,16,04,49,1.60
2020,01,16,04,50,1.60
2020,01,16,04,51,1.60
2020,01,16,04,52,1.60
2020,01,16,04,53,1.60
2020,01,16,04,54,1.60
2020,01,16,04,55,1.60
2020,01,16,04,56,1.60
2020,01,16,04,57,1.60
2020,01,16,04,58,1.60
2020,01,16,04,59,1.60
2020,01,16,05,00,1.50
2020,01,16,05,01,1.50
2020,01,16,05,02,1.50
2020,01,16,05,03,1.50
2020,01,16,05,04,1.50
2020,01,16,05,05,1.50
2020,01,16,05,06,1.60
2020,01,16,05,07,1.70
2020,01,16,05,08,1.70
2020,01,16,05,09,1.70
2020,01,16,05,10,1.70
2020,01,16,05,11,1.60
2020,01,16,05,12,1.60
2020,01,16,05,13,1.60
2020,01,16,05,14,1.50
2020,01,16,05,15,1.50
2020,01,16,05,16,1.40
2020,01,16,05,17,1.40
2020,01,16,05,18,1.40
2020,01,16,05,19,1.40
2020,01,16,05,20,1.40
2020,01,16,05,21,1.30
2020,01,16,05,22,1.30
2020,01,16,05,23,1.30
2020,01,16,05,24,1.30
2020,01,16,05,25,1.30
2020,01,16,05,26,1.30
2020,01,16,05,27,1.30
2020,01,16,05,28,1.30
2020,01,16,05,29,1.40
2020,01,16,05,30,1.30
2020,01,16,05,31,1.30
2020,01,16,05,32,1.30
2020,01,16,05,33,1.30
2020,01,16,05,34,1.30
2020,01,16,05,35,1.20
2020,01,16,05,36,1.20
2020,01,16,05,37,1.20
2020,01,16,05,38,1.10
2020,01,16,05,39,1.10
2020,01,16,05,40,1.20
2020,01,16,05,41,1.10
2020,01,16,05,42,1.10
2020,01,16,05,43,1.10
2020,01,16,05,44,1.10
2020,01,16,05,45,1.10
2020,01,16,05,46,1.00
2020,01,16,05,47,1.00
2020,01,16,05,48,1.00
2020,01,16,05,49,0.90
2020,01,16,05,50,0.90
2020,01,16,05,51,0.90
2020,01,16,05,52,0.90
2020,01,16,05,53,0.90
2020,01,16,05,54,0.90
2020,01,16,05,55,0.90
2020,01,16,05,56,0.90
2020,01,16,05,57,0.80
2020,01,16,05,58,0.80
2020,01,16,05,59,0.80
2020,01,16,06,00,0.80
2020,01,16,06,01,0.80
2020,01,16,06,02,0.80
2020,01,16,06,03,0.80
2020,01,16,06,04,0.80
2020,01,16,06,05,0.70
2020,01,16,06,06,0.70
2020,01,16,06,07,0.70
2020,01,16,06,08,0.70
2020,01,16,06,09,0.70
2020,01,16,06,10,0.70
2020,01,16,06,11,0.70
2020,01,16,06,12,0.70
2020,01,16,06,13,0.70
2020,01,16,06,14,0.70
2020,01,16,06,15,0.70
2020,01,16,06,16,0.70
2020,01,16,06,17,0.70
2020,01,16,06,18,0.70
2020,01,16,06,19,0.70
2020,01,16,06,20,0.60
2020,01,16,06,21,0.60
2020,01,16,06,22,0.60
2020,01,16,06,23,0.60
2020,01,16,06,24,0.60
2020,01,16,06,25,0.60
2020,01,16,06,26,0.60
2020,01,16,06,27,0.60
2020,01,16,06,28,0.60
2020,01,16,06,29,0.60
2020,01,16,06,30,0.60
2020,01,16,06,31,0.60
2020,01,16,06,32,0.60
2020,01,16,06,33,0.60
2020,01,16,06,34,0.60
2020,01,16,06,35,0.60
2020,01,16,06,36,0.60
2020,01,16,06,37,0.60
2020,01,16,06,38,0.60
2020,01,16,06,39,0.70
2020,01,16,06,40,0.70
2020,01,16,06,41,0.70
2020,01,16,06,42,0.70
2020,01,16,06,43,0.70
2020,01,16,06,44,0.60
2020,01,16,06,45,0.60
2020,01,16,06,46,0.60
2020,01,16,06,47,0.60
2020,01,16,06,48,0.60
2020,01,16,06,49,0.60
2020,01,16,06,50,0.60
2020,01,16,06,51,0.60
2020,01,16,06,52,0.60
2020,01,16,06,53,0.60
2020,01,16,06,54,0.60
2020,01,16,06,55,0.60
2020,01,16,06,56,0.60
2020,01,16,06,57,0.60
2020,01,16,06,58,0.60
2020,01,16,06,59,0.60
2020,01,16,07,00,0.50
2020,01,16,07,01,0.50
2020,01,16,07,02,0.50
2020,01,16,07,03,0.50
2020,01,16,07,04,0.50
2020,01,16,07,05,0.60
2020,01,16,07,06,0.60
2020,01,16,07,07,0.60
2020,01,16,07,08,0.60
2020,01,16,07,09,0.60
2020,01,16,07,10,0.60
2020,01,16,07,11,0.60
2020,01,16,07,12,0.60
2020,01,16,07,13,0.60
2020,01,16,07,14,0.60
2020,01,16,07,15,0.60
2020,01,16,07,16,0.70
2020,01,16,07,17,0.70
2020,01,16,07,18,0.70
2020,01,16,07,19,0.70
2020,01,16,07,20,0.70
2020,01,16,07,21,0.70
2020,01,16,07,22,0.70
2020,01,16,07,23,0.70
2020,01,16,07,24,0.70
2020,01,16,07,25,0.70
2020,01,16,07,26,0.70
2020,01,16,07,27,0.70
2020,01,16,07,28,0.70
2020,01,16,07,29,0.70
2020,01,16,07,30,0.70
2020,01,16,07,31,0.70
2020,01,16,07,32,0.70
2020,01,16,07,33,0.80
2020,01,16,07,34,0.80
2020,01,16,07,35,0.80
2020,01,16,07,36,0.80
2020,01,16,07,37,0.80
2020,01,16,07,38,0.80
2020,01,16,07,39,0.80
2020,01,16,07,40,0.80
2020,01,16,07,41,0.80
2020,01,16,07,42,0.80
2020,01,16,07,43,0.80
2020,01,16,07,44,0.80
2020,01,16,07,45,0.80
2020,01,16,07,46,0.80
2020,01,16,07,47,0.80
2020,01,16,07,48,0.80
2020,01,16,07,49,0.80
2020,01,16,07,50,0.80
2020,01,16,07,51,0.80
2020,01,16,07,52,0.80
2020,01,16,07,53,0.80
2020,01,16,07,54,0.90
2020,01,16,07,55,0.90
2020,01,16,07,56,0.90
2020,01,16,07,57,0.90
2020,01,16,07,58,0.90
2020,01,16,07,59,0.90
2020,01,16,08,00,0.90
2020,01,16,08,01,0.90
2020,01,16,08,02,1.00
2020,01,16,08,03,1.00
2020,01,16,08,04,1.00
2020,01,16,08,05,1.00
2020,01,16,08,06,1.00
2020,01,16,08,07,1.00
2020,01,16,08,08,1.10
2020,01,16,08,09,1.10
2020,01,16,08,10,1.10
2020,01,16,08,11,1.10
2020,01,16,08,12,1.10
2020,01,16,08,13,1.10
2020,01,16,08,14,1.10
2020,01,16,08,15,1.10
2020,01,16,08,16,1.10
2020,01,16,08,17,1.10
2020,01,16,08,18,1.10
2020,01,16,08,19,1.10
2020,01,16,08,20,1.10
2020,01,16,08,21,1.20
2020,01,16,08,22,1.20
2020,01,16,08,23,1.20
2020,01,16,08,24,1.20
2020,01,16,08,25,1.20
2020,01,16,08,26,1.20
2020,01,16,08,27,1.30
2020,01,16,08,28,1.30
2020,01,16,08,29,1.30
2020,01,16,08,30,1.30
2020,01,16,08,31,1.30
2020,01,16,08,32,1.30
2020,01,16,08,33,1.30
2020,01,16,08,34,1.30
2020,01,16,08,35,1.30
2020,01,16,08,36,1.30
2020,01,16,08,37,1.30
2020,01,16,08,38,1.30
2020,01,16,08,39,1.30
2020,01,16,08,40,1.60
2020,01,16,08,41,1.70
2020,01,16,08,42,1.90
2020,01,16,08,43,2.10
2020,01,16,08,44,2.30
2020,01,16,08,45,2.40
2020,01,16,08,46,2.40
2020,01,16,08,47,2.40
2020,01,16,08,48,2.50
2020,01,16,08,49,2.60
2020,01,16,08,50,2.60
2020,01,16,08,51,2.70
2020,01,16,08,52,2.80
2020,01,16,08,53,2.80
2020,01,16,08,54,2.80
2020,01,16,08,55,2.80
2020,01,16,08,56,2.80
2020,01,16,08,57,2.90
2020,01,16,08,58,3.00
2020,01,16,08,59,3.10
2020,01,16,09,00,3.20
2020,01,16,09,01,3.20
2020,01,16,09,02,3.20
2020,01,16,09,03,3.20
2020,01,16,09,04,3.20
2020,01,16,09,05,3.10
2020,01,16,09,06,3.20
2020,01,16,09,07,3.20
2020,01,16,09,08,3.30
2020,01,16,09,09,3.40
2020,01,16,09,10,3.40
2020,01,16,09,11,3.40
2020,01,16,09,12,3.40
2020,01,16,09,13,3.40
2020,01,16,09,14,3.40
2020,01,16,09,15,3.40
2020,01,16,09,16,3.30
2020,01,16,09,17,3.30
2020,01,16,09,18,3.20
2020,01,16,09,19,3.20
2020,01,16,09,20,3.20
2020,01,16,09,21,3.20
2020,01,16,09,22,3.10
2020,01,16,09,23,3.10
2020,01,16,09,24,3.20
2020,01,16,09,25,3.20
2020,01,16,09,26,3.30
2020,01,16,09,27,3.30
2020,01,16,09,28,3.50
2020,01,16,09,29,3.50
2020,01,16,09,30,3.60
2020,01,16,09,31,3.60
2020,01,16,09,32,3.70
2020,01,16,09,33,3.70
2020,01,16,09,34,3.80
2020,01,16,09,35,3.80
2020,01,16,09,36,3.90
2020,01,16,09,37,3.90
2020,01,16,09,38,4.00
2020,01,16,09,39,4.00
2020,01,16,09,40,4.00
2020,01,16,09,41,4.00
2020,01,16,09,42,4.00
2020,01,16,09,43,4.00
2020,01,16,09,44,4.10
2020,01,16,09,45,4.10
2020,01,16,09,46,4.10
2020,01,16,09,47,4.20
2020,01,16,09,48,4.20
2020,01,16,09,49,4.20
2020,01,16,09,50,4.30
2020,01,16,09,51,4.30
2020,01,16,09,52,4.30
2020,01,16,09,53,4.30
2020,01,16,09,54,4.30
2020,01,16,09,55,4.30
2020,01,16,09,56,4.30
2020,01,16,09,57,4.30
2020,01,16,09,58,4.30
2020,01,16,09,59,4.30
2020,01,16,10,00,4.30
2020,01,16,10,01,4.30
2020,01,16,10,02,4.40
2020,01,16,10,03,4.40
2020,01,16,10,04,4.40
2020,01,16,10,05,4.40
2020,01,16,10,06,4.40
2020,01,16,10,07,4.40
2020,01,16,10,08,4.40
2020,01,16,10,09,4.30
2020,01,16,10,10,4.30
2020,01,16,10,11,4.30
2020,01,16,10,12,4.30
2020,01,16,10,13,4.30
2020,01,16,10,14,4.30
2020,01,16,10,15,4.20
2020,01,16,10,16,4.20
2020,01,16,10,17,4.20
2020,01,16,10,18,4.10
2020,01,16,10,19,4.10
2020,01,16,10,20,4.10
2020,01,16,10,21,4.10
2020,01,16,10,22,4.10
2020,01,16,10,23,4.10
2020,01,16,10,24,4.10
2020,01,16,10,25,4.20
2020,01,16,10,26,4.20
2020,01,16,10,27,4.20
2020,01,16,10,28,4.10
2020,01,16,10,29,4.10
2020,01,16,10,30,4.20
2020,01,16,10,31,4.20
2020,01,16,10,32,4.20
2020,01,16,10,33,4.20
2020,01,16,10,34,4.20
2020,01,16,10,35,4.30
2020,01,16,10,36,4.30
2020,01,16,10,37,4.30
2020,01,16,10,38,4.30
2020,01,16,10,39,4.30
2020,01,16,10,40,4.30
2020,01,16,10,41,4.30
2020,01,16,10,42,4.30
2020,01,16,10,43,4.30
2020,01,16,10,44,4.40
2020,01,16,10,45,4.40
2020,01,16,10,46,4.30
2020,01,16,10,47,4.40
2020,01,16,10,48,4.30
2020,01,16,10,49,4.30
2020,01,16,10,50,4.30
2020,01,16,10,51,4.30
2020,01,16,10,52,4.30
2020,01,16,10,53,4.30
2020,01,16,10,54,4.30
2020,01,16,10,55,4.30
2020,01,16,10,56,4.40
2020,01,16,10,57,4.30
2020,01,16,10,58,4.30
2020,01,16,10,59,4.30
2020,01,16,11,00,4.30
2020,01,16,11,01,4.30
2020,01,16,11,02,4.40
2020,01,16,11,03,4.40
2020,01,16,11,04,4.50
2020,01,16,11,05,4.40
2020,01,16,11,06,4.50
2020,01,16,11,07,4.50
2020,01,16,11,08,4.60
2020,01,16,11,09,4.60
2020,01,16,11,10,4.70
2020,01,16,11,11,4.70
2020,01,16,11,12,4.70
2020,01,16,11,13,4.80
2020,01,16,11,14,4.90
2020,01,16,11,15,4.90
2020,01,16,11,16,5.00
2020,01,16,11,17,5.00
2020,01,16,11,18,5.00
2020,01,16,11,19,5.10
2020,01,16,11,20,5.10
2020,01,16,11,21,5.20
2020,01,16,11,22,5.10
2020,01,16,11,23,5.20
2020,01,16,11,24,5.20
2020,01,16,11,25,5.20
2020,01,16,11,26,5.20
2020,01,16,11,27,5.20
2020,01,16,11,28,5.20
2020,01,16,11,29,5.20
2020,01,16,11,30,5.20
2020,01,16,11,31,5.20
2020,01,16,11,32,5.20
2020,01,16,11,33,5.10
2020,01,16,11,34,5.10
2020,01,16,11,35,5.00
2020,01,16,11,36,4.90
2020,01,16,11,37,4.90
2020,01,16,11,38,4.90
2020,01,16,11,39,4.90
2020,01,16,11,40,5.00
2020,01,16,11,41,5.00
2020,01,16,11,42,4.90
2020,01,16,11,43,4.90
2020,01,16,11,44,4.90
2020,01,16,11,45,4.90
2020,01,16,11,46,4.90
2020,01,16,11,47,4.90
2020,01,16,11,48,4.90
2020,01,16,11,49,4.90
2020,01,16,11,50,4.90
2020,01,16,11,51,4.90
2020,01,16,11,52,4.90
2020,01,16,11,53,4.90
2020,01,16,11,54,4.90
2020,01,16,11,55,4.90
2020,01,16,11,56,4.90
2020,01,16,11,57,4.90
2020,01,16,11,58,4.90
2020,01,16,11,59,4.90
2020,01,16,12,00,4.90
2020,01,16,12,01,4.90
2020,01,16,12,02,5.00
2020,01,16,12,03,5.00
2020,01,16,12,04,5.00
2020,01,16,12,05,5.00
2020,01,16,12,06,5.00
2020,01,16,12,07,5.00
2020,01,16,12,08,5.00
2020,01,16,12,09,5.00
2020,01,16,12,10,5.00
2020,01,16,12,11,5.00
2020,01,16,12,12,5.00
2020,01,16,12,13,5.00
2020,01,16,12,14,5.00
2020,01,16,12,15,5.10
2020,01,16,12,16,5.10
2020,01,16,12,17,5.10
2020,01,16,12,18,5.10
2020,01,16,12,19,5.20
2020,01,16,12,20,5.20
2020,01,16,12,21,5.20
2020,01,16,12,22,5.20
2020,01,16,12,23,5.20
2020,01,16,12,24,5.20
2020,01,16,12,25,5.30
2020,01,16,12,26,5.30
2020,01,16,12,27,5.30
2020,01,16,12,28,5.30
2020,01,16,12,29,5.30
2020,01,16,12,30,5.30
2020,01,16,12,31,5.30
2020,01,16,12,32,5.30
2020,01,16,12,33,5.30
2020,01,16,12,34,5.30
2020,01,16,12,35,5.20
2020,01,16,12,36,5.20
2020,01,16,12,37,5.20
2020,01,16,12,38,5.20
2020,01,16,12,39,5.20
2020,01,16,12,40,5.20
2020,01,16,12,41,5.20
2020,01,16,12,42,5.20
2020,01,16,12,43,5.20
2020,01,16,12,44,5.20
2020,01,16,12,45,5.20
2020,01,16,12,46,5.20
2020,01,16,12,47,5.20
2020,01,16,12,48,5.20
2020,01,16,12,49,5.20
2020,01,16,12,50,5.20
2020,01,16,12,51,5.20
2020,01,16,12,52,5.20
2020,01,16,12,53,5.20
2020,01,16,12,54,5.20
2020,01,16,12,55,5.20
2020,01,16,12,56,5.20
2020,01,16,12,57,5.20
2020,01,16,12,58,5.20
2020,01,16,12,59,5.10
2020,01,16,13,00,5.10
2020,01,16,13,01,5.10
2020,01,16,13,02,5.10
2020,01,16,13,03,5.10
2020,01,16,13,04,5.20
2020,01,16,13,05,5.20
2020,01,16,13,06,5.20
2020,01,16,13,07,5.20
2020,01,16,13,08,5.20
2020,01,16,13,09,5.20
2020,01,16,13,10,5.30
2020,01,16,13,11,5.20
2020,01,16,13,12,5.20
2020,01,16,13,13,5.20
2020,01,16,13,14,5.20
2020,01,16,13,15,5.20
2020,01,16,13,16,5.20
2020,01,16,13,17,5.20
2020,01,16,13,18,5.20
2020,01,16,13,19,5.20
2020,01,16,13,20,5.20
2020,01,16,13,21,5.20
2020,01,16,13,22,5.20
2020,01,16,13,23,5.20
2020,01,16,13,24,5.20
2020,01,16,13,25,5.20
2020,01,16,13,26,5.20
2020,01,16,13,27,5.20
2020,01,16,13,28,5.20
2020,01,16,13,29,5.20
2020,01,16,13,30,5.20
2020,01,16,13,31,5.20
2020,01,16,13,32,5.20
2020,01,16,13,33,5.20
2020,01,16,13,34,5.20
2020,01,16,13,35,5.30
2020,01,16,13,36,5.30
2020,01,16,13,37,5.30
2020,01,16,13,38,5.30
2020,01,16,13,39,5.30
2020,01,16,13,40,5.30
2020,01,16,13,41,5.30
2020,01,16,13,42,5.30
2020,01,16,13,43,5.40
2020,01,16,13,44,5.40
2020,01,16,13,45,5.40
2020,01,16,13,46,5.40
2020,01,16,13,47,5.40
2020,01,16,13,48,5.40
2020,01,16,13,49,5.40
2020,01,16,13,50,5.40
2020,01,16,13,51,5.30
2020,01,16,13,52,5.30
2020,01,16,13,53,5.30
2020,01,16,13,54,5.30
2020,01,16,13,55,5.30
2020,01,16,13,56,5.30
2020,01,16,13,57,5.30
2020,01,16,13,58,5.30
2020,01,16,13,59,5.30
2020,01,16,14,00,5.30
2020,01,16,14,01,5.30
2020,01,16,14,02,5.30
2020,01,16,14,03,5.30
2020,01,16,14,04,5.20
2020,01,16,14,05,5.20
2020,01,16,14,06,5.20
2020,01,16,14,07,5.20
2020,01,16,14,08,5.20
2020,01,16,14,09,5.20
2020,01,16,14,10,5.10
2020,01,16,14,11,5.10
2020,01,16,14,12,5.10
2020,01,16,14,13,5.10
2020,01,16,14,14,5.00
2020,01,16,14,15,5.00
2020,01,16,14,16,5.00
2020,01,16,14,17,4.90
2020,01,16,14,18,4.90
2020,01,16,14,19,4.90
2020,01,16,14,20,4.90
2020,01,16,14,21,4.90
2020,01,16,14,22,4.90
2020,01,16,14,23,4.90
2020,01,16,14,24,4.90
2020,01,16,14,25,4.90
2020,01,16,14,26,4.80
2020,01,16,14,27,4.80
2020,01,16,14,28,4.80
2020,01,16,14,29,4.80
2020,01,16,14,30,4.80
2020,01,16,14,31,4.80
2020,01,16,14,32,4.70
2020,01,16,14,33,4.60
2020,01,16,14,34,4.50
2020,01,16,14,35,4.50
2020,01,16,14,36,4.50
2020,01,16,14,37,4.50
2020,01,16,14,38,4.50
2020,01,16,14,39,4.40
2020,01,16,14,40,4.40
2020,01,16,14,41,4.30
2020,01,16,14,42,4.30
2020,01,16,14,43,4.20
2020,01,16,14,44,4.20
2020,01,16,14,45,4.10
2020,01,16,14,46,4.00
2020,01,16,14,47,3.90
2020,01,16,14,48,3.80
2020,01,16,14,49,3.70
2020,01,16,14,50,3.70
2020,01,16,14,51,3.70
2020,01,16,14,52,3.70
2020,01,16,14,53,3.70
2020,01,16,14,54,3.70
2020,01,16,14,55,3.70
2020,01,16,14,56,3.70
2020,01,16,14,57,3.70
2020,01,16,14,58,3.70
2020,01,16,14,59,3.70
2020,01,16,15,00,3.60
2020,01,16,15,01,3.60
2020,01,16,15,02,3.60
2020,01,16,15,03,3.60
2020,01,16,15,04,3.60
2020,01,16,15,05,3.60
2020,01,16,15,06,3.60
2020,01,16,15,07,3.50
2020,01,16,15,08,3.50
2020,01,16,15,09,3.50
2020,01,16,15,10,3.40
2020,01,16,15,11,3.40
2020,01,16,15,12,3.40
2020,01,16,15,13,3.40
2020,01,16,15,14,3.30
2020,01,16,15,15,3.30
2020,01,16,15,16,3.30
2020,01,16,15,17,3.20
2020,01,16,15,18,3.20
2020,01,16,15,19,3.20
2020,01,16,15,20,3.10
2020,01,16,15,21,3.10
2020,01,16,15,22,3.10
2020,01,16,15,23,3.10
2020,01,16,15,24,3.10
2020,01,16,15,25,3.10
2020,01,16,15,26,3.10
2020,01,16,15,27,3.10
2020,01,16,15,28,3.00
2020,01,16,15,29,3.00
2020,01,16,15,30,3.00
2020,01,16,15,31,2.90
2020,01,16,15,32,2.90
2020,01,16,15,33,2.90
2020,01,16,15,34,2.80
2020,01,16,15,35,2.80
2020,01,16,15,36,2.80
2020,01,16,15,37,2.80
2020,01,16,15,38,2.80
2020,01,16,15,39,2.80
2020,01,16,15,40,2.70
2020,01,16,15,41,2.70
2020,01,16,15,42,2.60
2020,01,16,15,43,2.60
2020,01,16,15,44,2.60
2020,01,16,15,45,2.60
2020,01,16,15,46,2.60
2020,01,16,15,47,2.60
2020,01,16,15,48,2.50
2020,01,16,15,49,2.50
2020,01,16,15,50,2.40
2020,01,16,15,51,2.40
2020,01,16,15,52,2.40
2020,01,16,15,53,2.40
2020,01,16,15,54,2.40
2020,01,16,15,55,2.30
2020,01,16,15,56,2.30
2020,01,16,15,57,2.20
2020,01,16,15,58,2.20
2020,01,16,15,59,2.10
2020,01,16,16,00,2.00
2020,01,16,16,01,2.00
2020,01,16,16,02,1.90
2020,01,16,16,03,1.80
2020,01,16,16,04,1.80
2020,01,16,16,05,1.80
2020,01,16,16,06,1.70
2020,01,16,16,07,1.70
2020,01,16,16,08,1.60
2020,01,16,16,09,1.60
2020,01,16,16,10,1.50
2020,01,16,16,11,1.40
2020,01,16,16,12,1.40
2020,01,16,16,13,1.30
2020,01,16,16,14,1.30
2020,01,16,16,15,1.30
2020,01,16,16,16,1.20
2020,01,16,16,17,1.20
2020,01,16,16,18,1.20
2020,01,16,16,19,1.10
2020,01,16,16,20,1.10
2020,01,16,16,21,1.10
2020,01,16,16,22,1.10
2020,01,16,16,23,1.10
2020,01,16,16,24,1.00
2020,01,16,16,25,1.00
2020,01,16,16,26,1.00
2020,01,16,16,27,0.90
2020,01,16,16,28,0.90
2020,01,16,16,29,0.90
2020,01,16,16,30,0.80
2020,01,16,16,31,0.80
2020,01,16,16,32,0.80
2020,01,16,16,33,0.80
2020,01,16,16,34,0.70
2020,01,16,16,35,0.70
2020,01,16,16,36,0.70
2020,01,16,16,37,0.70
2020,01,16,16,38,0.70
2020,01,16,16,39,0.60
2020,01,16,16,40,0.60
2020,01,16,16,41,0.60
2020,01,16,16,42,0.60
2020,01,16,16,43,0.60
2020,01,16,16,44,0.60
2020,01,16,16,45,0.60
2020,01,16,16,46,0.60
2020,01,16,16,47,0.60
2020,01,16,16,48,0.50
2020,01,16,16,49,0.50
2020,01,16,16,50,0.50
2020,01,16,16,51,0.40
2020,01,16,16,52,0.40
2020,01,16,16,53,0.40
2020,01,16,16,54,0.30
2020,01,16,16,55,0.30
2020,01,16,16,56,0.30
2020,01,16,16,57,0.30
2020,01,16,16,58,0.20
2020,01,16,16,59,0.20
2020,01,16,17,00,0.20
2020,01,16,17,01,0.20
2020,01,16,17,02,0.20
2020,01,16,17,03,0.20
2020,01,16,17,04,0.20
2020,01,16,17,05,0.10
2020,01,16,17,06,0.10
2020,01,16,17,07,0.10
2020,01,16,17,08,0.10
2020,01,16,17,09,0.10
2020,01,16,17,10,0.00
2020,01,16,17,11,0.00
2020,01,16,17,12,0.00
2020,01,16,17,13,-0.10
2020,01,16,17,14,-0.10
2020,01,16,17,15,-0.10
2020,01,16,17,16,-0.10
2020,01,16,17,17,-0.10
2020,01,16,17,18,-0.10
2020,01,16,17,19,-0.20
2020,01,16,17,20,-0.20
2020,01,16,17,21,-0.20
2020,01,16,17,22,-0.20
2020,01,16,17,23,-0.20
2020,01,16,17,24,-0.20
2020,01,16,17,25,-0.20
2020,01,16,17,26,-0.20
2020,01,16,17,27,-0.20
2020,01,16,17,28,-0.30
2020,01,16,17,29,-0.30
2020,01,16,17,30,-0.30
2020,01,16,17,31,-0.30
2020,01,16,17,32,-0.30
2020,01,16,17,33,-0.30
2020,01,16,17,34,-0.30
2020,01,16,17,35,-0.30
2020,01,16,17,36,-0.30
2020,01,16,17,37,-0.30
2020,01,16,17,38,-0.30
2020,01,16,17,39,-0.40
2020,01,16,17,40,-0.40
2020,01,16,17,41,-0.40
2020,01,16,17,42,-0.50
2020,01,16,17,43,-0.50
2020,01,16,17,44,-0.50
2020,01,16,17,45,-0.50
2020,01,16,17,46,-0.60
2020,01,16,17,47,-0.60
2020,01,16,17,48,-0.60
2020,01,16,17,49,-0.70
2020,01,16,17,50,-0.70
2020,01,16,17,51,-0.70
2020,01,16,17,52,-0.80
2020,01,16,17,53,-0.80
2020,01,16,17,54,-0.80
2020,01,16,17,55,-0.80
2020,01,16,17,56,-0.90
2020,01,16,17,57,-0.90
2020,01,16,17,58,-0.90
2020,01,16,17,59,-1.00
2020,01,16,18,00,-1.00
2020,01,16,18,01,-1.00
2020,01,16,18,02,-1.00
2020,01,16,18,03,-1.10
2020,01,16,18,04,-1.10